2021-01-10 00:07:44 r, 20.22m,0000000000Hz,0000669169c,0000001.452s, 002.5C,00002191
2021-01-10 00:17:43 r, 20.22m,0000000001Hz,0000668933c,0000001.452s, 002.5C,00002191
2021-01-10 00:27:44 r, 20.22m,0000000001Hz,0000669121c,0000001.452s, 002.5C,00002191
2021-01-10 00:37:44 r, 20.22m,0000000001Hz,0000668137c,0000001.450s, 002.5C,00002191
2021-01-10 00:47:43 r, 20.22m,0000000000Hz,0000668086c,0000001.450s, 002.2C,00002191
2021-01-10 00:57:44 r, 20.22m,0000000000Hz,0000668898c,0000001.452s, 002.2C,00002191
2021-01-10 01:07:44 r, 20.22m,0000000000Hz,0000668013c,0000001.450s, 002.2C,00002191
2021-01-10 01:17:43 r, 20.22m,0000000001Hz,0000667083c,0000001.448s, 002.5C,00002191
2021-01-10 01:27:44 r, 20.22m,0000000000Hz,0000666363c,0000001.446s, 002.5C,00002191
2021-01-10 01:37:46 r, 20.22m,0000000001Hz,0000668183c,0000001.450s, 002.5C,00002191
2021-01-10 01:47:43 r, 20.22m,0000000001Hz,0000669129c,0000001.452s, 002.5C,00002191
2021-01-10 01:57:45 r, 20.23m,0000000001Hz,0000671815c,0000001.458s, 002.5C,00002191
2021-01-10 02:07:44 r, 20.23m,0000000001Hz,0000673020c,0000001.461s, 002.5C,00002191
2021-01-10 02:17:43 r, 20.23m,0000000001Hz,0000673781c,0000001.462s, 002.5C,00002191
2021-01-10 02:27:45 r, 20.24m,0000000001Hz,0000676000c,0000001.467s, 002.5C,00002191
2021-01-10 02:37:44 r, 20.24m,0000000001Hz,0000678886c,0000001.473s, 002.5C,00002191
2021-01-10 02:47:43 r, 20.24m,0000000001Hz,0000680829c,0000001.477s, 002.5C,00002191
2021-01-10 02:57:44 r, 20.24m,0000000001Hz,0000682422c,0000001.481s, 002.5C,00002191
2021-01-10 03:07:44 r, 20.24m,0000000000Hz,0000681425c,0000001.479s, 002.5C,00002191
2021-01-10 03:17:43 r, 20.24m,0000000000Hz,0000682657c,0000001.481s, 002.2C,00002191
2021-01-10 03:27:44 r, 20.25m,0000000001Hz,0000684341c,0000001.485s, 002.5C,00002191
2021-01-10 03:37:44 r, 20.25m,0000000001Hz,0000687225c,0000001.491s, 002.5C,00002191
2021-01-10 03:47:43 r, 20.26m,0000000000Hz,0000689021c,0000001.495s, 002.5C,00002191
2021-01-10 03:57:44 r, 20.26m,0000000000Hz,0000690266c,0000001.498s, 002.5C,00002191
2021-01-10 04:07:45 r, 20.26m,0000000001Hz,0000689394c,0000001.496s, 002.5C,00002191
2021-01-10 04:17:43 r, 20.26m,0000000000Hz,0000690031c,0000001.497s, 002.5C,00002191
2021-01-10 04:27:45 r, 20.25m,0000000001Hz,0000686954c,0000001.491s, 002.5C,00002191
2021-01-10 04:37:44 r, 20.24m,0000000001Hz,0000678854c,0000001.473s, 002.5C,00002191
2021-01-10 04:47:43 r, 20.22m,0000000001Hz,0000663644c,0000001.440s, 002.5C,00002191
2021-01-10 04:57:45 r, 20.24m,0000000000Hz,0000680666c,0000001.477s, 002.5C,00002191
2021-01-10 05:07:44 r, 20.22m,0000000000Hz,0000669819c,0000001.454s, 002.5C,00002191
2021-01-10 05:17:43 r, 20.17m,0000000000Hz,0000635324c,0000001.379s, 002.5C,00002191
2021-01-10 05:27:44 r, 20.07m,0000000000Hz,0000579028c,0000001.257s, 002.2C,00002191
2021-01-10 05:37:44 r, 20.07m,0000000001Hz,0000584554c,0000001.269s, 002.2C,00002191
2021-01-10 05:47:43 r, 19.92m,0000000001Hz,0000506714c,0000001.100s, 002.2C,00002191
2021-01-10 05:57:43 r, 19.72m,0000000002Hz,0000420258c,0000000.912s, 002.2C,00002191
2021-01-10 06:07:45 r, 19.59m,0000000001Hz,0000373537c,0000000.811s, 002.5C,00002191
2021-01-10 06:17:43 r, 19.65m,0000000001Hz,0000394373c,0000000.856s, 002.5C,00002191
2021-01-10 06:27:43 r, 19.92m,0000000001Hz,0000504033c,0000001.094s, 002.5C,00002191
2021-01-10 06:37:44 r, 19.97m,0000000001Hz,0000531720c,0000001.154s, 002.5C,00002191
2021-01-10 06:47:43 r, 19.92m,0000000001Hz,0000504040c,0000001.094s, 002.5C,00002191
2021-01-10 06:57:43 r, 19.70m,0000000001Hz,0000413689c,0000000.898s, 002.5C,00002191
2021-01-10 07:07:44 r, 19.08m,0000000002Hz,0000234224c,0000000.508s, 002.5C,00002191
2021-01-10 07:17:43 r, 18.06m,0000000005Hz,0000092001c,0000000.200s, 002.5C,00002191
2021-01-10 07:27:43 r, 16.65m,0000000018Hz,0000025156c,0000000.055s, 002.5C,00002191
2021-01-10 07:37:44 r, 14.97m,0000000085Hz,0000005375c,0000000.012s, 002.2C,00002191
2021-01-10 07:47:43 r, 13.04m,0000000515Hz,0000000000c,0000000.000s, 002.2C,00002191
2021-01-10 07:57:43 r, 11.10m,0000003069Hz,0000000000c,0000000.000s, 002.2C,00002191
2021-01-10 08:07:45 r, 09.45m,0000014035Hz,0000000000c,0000000.000s, 001.9C,00002191
2021-01-10 08:17:43 r, 08.18m,0000045268Hz,0000000000c,0000000.000s, 001.6C,00002191
2021-01-10 08:27:43 r, 07.36m,0000095945Hz,0000000000c,0000000.000s, 001.6C,00002191
2021-01-10 08:37:45 r, 06.84m,0000155038Hz,0000000000c,0000000.000s, 001.2C,00002191
2021-01-10 08:47:43 r, 06.42m,0000228148Hz,0000000000c,0000000.000s, 001.6C,00002191
2021-01-10 08:57:43 r, 06.02m,0000330806Hz,0000000000c,0000000.000s, 001.6C,00002191
2021-01-10 09:07:44 r, 00.00m,0000566043Hz,0000000000c,0000000.000s, 001.9C,00002191
2021-01-10 09:17:43 r, 00.00m,0000599065Hz,0000000000c,0000000.000s, 002.5C,00002191
2021-01-10 09:27:43 r, 00.00m,0000598919Hz,0000000000c,0000000.000s, 003.8C,00002191
2021-01-10 09:37:44 r, 00.00m,0000598969Hz,0000000000c,0000000.000s, 004.8C,00002191
2021-01-10 09:47:43 r, 00.00m,0000598826Hz,0000000000c,0000000.000s, 006.1C,00002191
2021-01-10 09:57:43 r, 00.00m,0000598678Hz,0000000000c,0000000.000s, 007.0C,00002191
2021-01-10 10:07:44 r, 00.00m,0000598583Hz,0000000000c,0000000.000s, 008.0C,00002191
2021-01-10 10:17:43 r, 00.00m,0000598586Hz,0000000000c,0000000.000s, 008.3C,00002191
2021-01-10 10:27:43 r, 00.00m,0000598509Hz,0000000000c,0000000.000s, 009.0C,00002191
2021-01-10 10:37:46 r, 00.00m,0000598453Hz,0000000000c,0000000.000s, 009.0C,00002191
2021-01-10 10:47:43 r, 00.00m,0000598414Hz,0000000000c,0000000.000s, 009.0C,00002191
2021-01-10 10:57:43 r, 00.00m,0000598361Hz,0000000000c,0000000.000s, 009.3C,00002191
2021-01-10 11:07:46 r, 00.00m,0000598405Hz,0000000000c,0000000.000s, 009.6C,00002191
2021-01-10 11:17:43 r, 00.00m,0000598362Hz,0000000000c,0000000.000s, 010.3C,00002191
2021-01-10 11:27:43 r, 00.00m,0000598175Hz,0000000000c,0000000.000s, 010.6C,00002191
2021-01-10 11:37:44 r, 00.00m,0000598325Hz,0000000000c,0000000.000s, 010.3C,00002191
2021-01-10 11:47:44 r, 00.00m,0000598307Hz,0000000000c,0000000.000s, 010.3C,00002191
2021-01-10 11:57:43 r, 00.00m,0000598289Hz,0000000000c,0000000.000s, 010.6C,00002191
2021-01-10 12:07:45 r, 00.00m,0000598254Hz,0000000000c,0000000.000s, 010.9C,00002191
2021-01-10 12:17:44 r, 00.00m,0000598248Hz,0000000000c,0000000.000s, 011.2C,00002191
2021-01-10 12:27:43 r, 00.00m,0000598169Hz,0000000000c,0000000.000s, 011.9C,00002191
2021-01-10 12:37:44 r, 00.00m,0000598079Hz,0000000000c,0000000.000s, 012.2C,00002191
2021-01-10 12:47:45 r, 00.00m,0000598095Hz,0000000000c,0000000.000s, 011.9C,00002191
2021-01-10 12:57:43 r, 00.00m,0000598147Hz,0000000000c,0000000.000s, 012.5C,00002191
2021-01-10 13:07:45 r, 00.00m,0000598047Hz,0000000000c,0000000.000s, 013.2C,00002191
2021-01-10 13:17:43 r, 00.00m,0000598042Hz,0000000000c,0000000.000s, 013.5C,00002191
2021-01-10 13:27:43 r, 00.00m,0000597969Hz,0000000000c,0000000.000s, 013.5C,00002191
2021-01-10 13:37:45 r, 00.00m,0000597995Hz,0000000000c,0000000.000s, 013.5C,00002191
2021-01-10 13:47:44 r, 00.00m,0000598005Hz,0000000000c,0000000.000s, 013.5C,00002191
2021-01-10 13:57:43 r, 00.00m,0000597909Hz,0000000000c,0000000.000s, 013.5C,00002191
2021-01-10 14:07:43 r, 00.00m,0000597910Hz,0000000000c,0000000.000s, 014.1C,00002191
2021-01-10 14:17:44 r, 00.00m,0000597920Hz,0000000000c,0000000.000s, 014.1C,00002191
2021-01-10 14:27:43 r, 00.00m,0000597939Hz,0000000000c,0000000.000s, 014.5C,00002191
2021-01-10 14:37:44 r, 00.00m,0000597882Hz,0000000000c,0000000.000s, 014.5C,00002191
2021-01-10 14:47:44 r, 00.00m,0000597904Hz,0000000000c,0000000.000s, 014.1C,00002191
2021-01-10 14:57:43 r, 00.00m,0000597880Hz,0000000000c,0000000.000s, 014.1C,00002191
2021-01-10 15:07:45 r, 00.00m,0000597951Hz,0000000000c,0000000.000s, 014.1C,00002191
2021-01-10 15:17:44 r, 00.00m,0000598006Hz,0000000000c,0000000.000s, 013.8C,00002191
2021-01-10 15:27:43 r, 00.00m,0000597962Hz,0000000000c,0000000.000s, 013.8C,00002191
2021-01-10 15:37:46 r, 00.00m,0000597962Hz,0000000000c,0000000.000s, 013.5C,00002191
2021-01-10 15:47:44 r, 00.00m,0000598119Hz,0000000000c,0000000.000s, 013.2C,00002191
2021-01-10 15:57:43 r, 00.00m,0000598063Hz,0000000000c,0000000.000s, 012.8C,00002191
2021-01-10 16:07:44 r, 00.00m,0000494250Hz,0000000000c,0000000.000s, 012.5C,00002191
2021-01-10 16:17:44 r, 05.86m,0000381040Hz,0000000000c,0000000.000s, 012.2C,00002191
2021-01-10 16:27:43 r, 06.28m,0000259999Hz,0000000000c,0000000.000s, 011.9C,00002191
2021-01-10 16:37:44 r, 06.82m,0000158550Hz,0000000000c,0000000.000s, 011.9C,00002191
2021-01-10 16:47:44 r, 07.49m,0000085555Hz,0000000000c,0000000.000s, 011.6C,00002191
2021-01-10 16:57:43 r, 08.34m,0000038940Hz,0000000000c,0000000.000s, 011.6C,00002191
2021-01-10 17:07:44 r, 09.70m,0000011082Hz,0000000000c,0000000.000s, 011.2C,00002191
2021-01-10 17:17:45 r, 11.59m,0000001944Hz,0000000000c,0000000.000s, 011.2C,00002191
2021-01-10 17:27:43 r, 13.49m,0000000341Hz,0000000000c,0000000.000s, 010.9C,00002191
2021-01-10 17:37:45 r, 15.22m,0000000069Hz,0000006715c,0000000.015s, 011.2C,00002191
2021-01-10 17:47:44 r, 16.80m,0000000016Hz,0000028688c,0000000.062s, 011.2C,00002191
2021-01-10 17:57:43 r, 17.70m,0000000007Hz,0000066432c,0000000.144s, 010.9C,00002191
2021-01-10 18:07:45 r, 18.40m,0000000004Hz,0000124558c,0000000.270s, 010.9C,00002191
2021-01-10 18:17:44 r, 18.81m,0000000003Hz,0000181464c,0000000.394s, 010.9C,00002191
2021-01-10 18:27:43 r, 19.10m,0000000002Hz,0000237020c,0000000.514s, 010.6C,00002191
2021-01-10 18:37:44 r, 18.97m,0000000003Hz,0000211296c,0000000.459s, 010.6C,00002191
2021-01-10 18:47:44 r, 19.21m,0000000001Hz,0000261927c,0000000.568s, 010.3C,00002191
2021-01-10 18:57:43 r, 18.99m,0000000002Hz,0000214777c,0000000.466s, 010.3C,00002191
2021-01-10 19:07:44 r, 18.74m,0000000003Hz,0000171626c,0000000.372s, 010.3C,00002191
2021-01-10 19:17:44 r, 19.02m,0000000002Hz,0000220969c,0000000.480s, 010.3C,00002191
2021-01-10 19:27:43 r, 18.92m,0000000002Hz,0000201696c,0000000.438s, 010.3C,00002191
2021-01-10 19:37:44 r, 19.22m,0000000002Hz,0000265141c,0000000.575s, 010.3C,00002191
2021-01-10 19:47:45 r, 19.59m,0000000001Hz,0000370711c,0000000.804s, 010.3C,00002191
2021-01-10 19:57:43 r, 19.23m,0000000001Hz,0000267730c,0000000.581s, 010.3C,00002191
2021-01-10 20:07:45 r, 19.42m,0000000002Hz,0000318600c,0000000.691s, 010.3C,00002191
2021-01-10 20:17:44 r, 19.27m,0000000002Hz,0000277458c,0000000.602s, 010.3C,00002191
2021-01-10 20:27:43 r, 19.03m,0000000002Hz,0000222507c,0000000.483s, 010.3C,00002191
2021-01-10 20:37:45 r, 19.01m,0000000002Hz,0000219951c,0000000.477s, 010.3C,00002191
2021-01-10 20:47:43 r, 18.99m,0000000002Hz,0000215074c,0000000.467s, 010.6C,00002191
2021-01-10 20:57:43 r, 19.15m,0000000002Hz,0000248589c,0000000.539s, 010.6C,00002191
2021-01-10 21:07:44 r, 19.59m,0000000001Hz,0000374447c,0000000.813s, 010.6C,00002191
2021-01-10 21:17:44 r, 19.37m,0000000001Hz,0000306357c,0000000.665s, 010.6C,00002191
2021-01-10 21:27:43 r, 19.50m,0000000002Hz,0000343637c,0000000.746s, 010.6C,00002191
2021-01-10 21:37:44 r, 19.90m,0000000001Hz,0000498245c,0000001.081s, 010.3C,00002191
2021-01-10 21:47:43 r, 20.25m,0000000001Hz,0000683220c,0000001.483s, 009.9C,00002191
2021-01-10 21:57:43 r, 20.22m,0000000001Hz,0000663177c,0000001.439s, 009.6C,00002191
2021-01-10 22:07:45 r, 20.26m,0000000001Hz,0000684541c,0000001.486s, 009.3C,00002191
2021-01-10 22:17:44 r, 20.28m,0000000001Hz,0000699024c,0000001.517s, 009.3C,00002191
2021-01-10 22:27:43 r, 20.27m,0000000000Hz,0000689315c,0000001.496s, 009.0C,00002191
2021-01-10 22:37:43 r, 20.25m,0000000000Hz,0000678556c,0000001.473s, 009.0C,00002191
2021-01-10 22:47:44 r, 20.00m,0000000001Hz,0000543246c,0000001.179s, 008.7C,00002191
2021-01-10 22:57:43 r, 19.66m,0000000001Hz,0000399491c,0000000.867s, 008.3C,00002191
2021-01-10 23:07:43 r, 19.61m,0000000001Hz,0000381081c,0000000.827s, 008.3C,00002191
2021-01-10 23:17:44 r, 19.39m,0000000001Hz,0000315082c,0000000.684s, 008.7C,00002191
2021-01-10 23:27:43 r, 19.39m,0000000001Hz,0000312979c,0000000.679s, 008.7C,00002191
2021-01-10 23:37:43 r, 19.28m,0000000002Hz,0000279381c,0000000.606s, 009.0C,00002191
2021-01-10 23:47:45 r, 19.19m,0000000002Hz,0000258980c,0000000.562s, 009.0C,00002191
2021-01-10 23:57:43 r, 18.95m,0000000002Hz,0000206400c,0000000.448s, 009.3C,00002191
